Regional Weather Roundup
Issued by NWS Sioux Falls, SD

Home | Current Version | Previous Version | Graphics & Text | Print | Product List | Glossary Off
Versions: 1 2 3 4 5 6 7 8 9 10 11 12 13 14 15 16 17 18 19 20 21 22 23 24 25 26 27 28 29 30 31 32 33 34 35 36 37 38 39 40 41 42 43 44 45 46 47 48 49 50

000
ASUS43 KFSD 301502
RWRFSD

WEATHER ROUNDUP FOR SE SOUTH DAKOTA/SW MINNESOTA/NW IOWA
NATIONAL WEATHER SERVICE SIOUX FALLS SD
1000 AM CDT WED JUL 30 2014

NOTE: "FAIR" INDICATES FEW OR NO CLOUDS BELOW 12,000 FEET WITH NO
SIGNIFICANT WEATHER AND OR OBSTRUCTIONS TO VISIBILITY.


SDZ038>040-050-052>070-301600-
SOUTHEAST SOUTH DAKOTA

CITY           SKY/WX    TMP DP  RH WIND       PRES   REMARKS
CHAMBERLAIN    SUNNY     72  55  54 E6        30.17S
HURON          SUNNY     70  58  65 CALM      30.16S
MADISON        FAIR      68  57  68 N3        30.19R
MITCHELL       SUNNY     71  58  63 CALM      30.17S
SIOUX FALLS    SUNNY     72  59  63 CALM      30.17S
WINNER         PTSUNNY   72  52  49 CALM      30.18S
YANKTON        SUNNY     68  57  68 N3        30.17S
$$

MNZ071-072-080-081-089-090-097-098-301600-
SOUTHWEST MINNESOTA

CITY           SKY/WX    TMP DP  RH WIND       PRES   REMARKS
FAIRMONT       SUNNY     70  55  60 NW6       30.14S
JACKSON        SUNNY     68  55  64 N3        30.16S
LUVERNE        SUNNY     72  55  56 NW7       30.17S
MARSHALL       SUNNY     68  57  68 N3        30.15S
MONTEVIDEO     SUNNY     72  64  78 N6        30.15S
PIPESTONE      MOSUNNY   70  55  60 NW5       30.17S
REDWOOD FALLS  SUNNY     70  58  65 NW6       30.14S
TRACY          SUNNY     69  58  68 NW6       30.16S
WINDOM         SUNNY     70  57  64 NW6       30.15S
WORTHINGTON    SUNNY     68  55  64 NW8       30.18S
$$

IAZ001>003-012>014-020>022-031-032-NEZ013-014-SDZ071-301600-
NORTHWEST IOWA

CITY           SKY/WX    TMP DP  RH WIND       PRES   REMARKS
CHEROKEE       SUNNY     69  59  69 N6        30.16S
DENISON        SUNNY     68  59  73 N5        30.14S
ESTHERVILLE    SUNNY     69  58  67 N7        30.15S
LE MARS        SUNNY     68  59  73 CALM      30.17S
ORANGE CITY    SUNNY     72  57  60 N6        30.16F
SHELDON        SUNNY     68  59  73 NW7       30.16S
SIOUX CITY     SUNNY     71  57  61 VRB3      30.16S
SPENCER        SUNNY     71  59  65 N8        30.16R
STORM LAKE     SUNNY     70  59  68 N6        30.16F
$$

ABBREVIATIONS USED IN REMARKS
   TC - TEMPERATURE IN CELSIUS
  WCI - WIND CHILL INDEX
   HX - HEAT INDEX
  VSB - VISIBILITY



USA.gov is the U.S. government's official web portal to all federal, state and local government web resources and services.